SCP
0 0 0 0 0 0 0 0 0 0 0 0 0 0 0 0 0 0 0 0 0 0 0 0 0 0 0
0 0 0 0 0 0 0 0 0 0 0 0 0 0 0 0 0 0 0 0 0 0 0 0 0 0 0
0 0 0 0 0 0 0 0 0 0 0 0 0 0 0 0 0 0 0 0 0 0 0 0 0 0 0
0 0 0 0 0 0 0 0 0 0 0 0 0 0 0 0 0 0 0 0 0 0 0 0 0 0 0
0 0 0 0 0 0 0 0 0 0 0 0 0 0 0 0 0 0 0 0 0 0 0 0 0 0 0
0 0 0 0 0 0 0 0 0 0 0 0 0 0 0 0 0 0 0 0 0 0 0 0 0 0 0
0 0 0 0 0 0 0 0 0 0 0 0 0 0 0 0 0 0 0 0 0 0 0 0 0 0 0
0 0 0 0 0 0 0 0 0 0 0 0 0 0 0 0 0 0 0 0 0 0 0 0 0 0 0
0 0 0 0 0 0 0 0 0 0 0 0 0 0 0 0 0 0 0 0 0 0 0 0 0 0 0
0 0 0 0 0 0 0 0 0 0 0 0 0 0 0 0 0 0 0 0 0 0 0 0 0 0 0
0 0 0 0 0 0 0 0 0 0 0 0 0 0 0 0 0 0 0 0 0 0 0 0 0 0 0
0 0 0 0 0 0 0 0 0 0 0 0 0 0 0 0 0 0 0 0 0 0 0 0 0 0 0
0 0 0 0 0 0 0 0 0 0 0 0 0 0 0 0 0 0 0 0 0 0 0 0 0 0 0
0 0 0 0 0 0 0 0 0 0 0 0 0 0 0 0 0 0 0 0 0 0 0 0 0 0 0
0 0 0 0 0 0 0 0 0 0 0 0 0 0 0 0 0 0 0 0 0 0 0 0 0 0 0
0 0 0 0 0 0 0 0 0 0 0 0 0 0 0 0 0 0 0 0 0 0 0 0 0 0 0
0 0 0 0 0 0 0 0 0 0 0 0 0 0 0 0 0 0 0 0 0 0 0 0 0 0 0
Wind_Speed_500mb
43 44 44 47 49 54 57 57 51 50 45 40 38 38 36 34 32 33 30 25 26 25 22 29 24 25 19
35 34 43 43 45 50 51 49 50 52 48 44 41 40 37 41 39 38 33 28 27 25 21 24 26 20 19
37 38 43 44 46 46 44 43 43 39 39 41 45 39 41 43 37 36 28 30 31 30 31 30 27 25 21
37 39 40 40 44 41 39 37 38 40 41 39 42 46 40 36 35 32 29 31 32 30 31 31 32 29 23
38 37 37 38 38 37 39 38 39 41 39 43 46 44 39 39 35 32 29 32 33 31 31 32 32 30 25
37 35 34 33 37 33 37 37 40 37 37 34 41 42 41 39 35 29 28 33 31 31 31 32 32 30 31
37 35 34 33 35 32 33 36 36 37 39 42 37 35 42 40 39 34 31 35 33 33 33 34 35 36 35
38 38 36 32 34 35 35 35 35 34 36 39 39 35 35 41 38 35 40 39 36 35 36 37 37 36 36
36 33 33 32 30 33 35 32 31 32 31 31 32 30 28 26 33 39 43 41 40 36 37 37 35 35 34
37 38 29 30 29 31 32 31 25 28 27 28 31 30 26 32 36 40 40 41 38 37 38 36 35 38 36
30 36 32 30 29 30 28 30 27 26 28 31 30 28 30 29 22 16 21 30 38 39 39 37 36 38 40
33 31 28 30 30 31 30 32 33 31 31 34 36 32 31 30 29 25 25 30 37 35 35 35 36 38 38
34 34 28 28 32 34 33 34 35 34 35 37 39 38 37 37 37 33 31 30 32 36 38 38 38 40 42
37 37 29 26 33 35 33 35 35 32 31 35 35 37 40 39 41 40 34 25 16 31 38 41 41 41 39
36 39 32 31 33 34 34 34 33 31 33 30 31 33 36 36 38 35 35 35 31 25 32 40 43 41 41
40 39 36 35 36 36 36 36 32 32 33 32 29 30 32 31 33 33 33 34 32 33 35 30 37 40 40
43 40 38 40 41 39 40 37 34 33 32 33 31 28 30 31 26 22 23 31 37 37 38 41 38 36 38
Wind_Direction_500mb
278 282 282 281 279 278 277 278 279 276 277 273 269 268 275 272 275 275 277 266 273 275 260 258 247 247 239
277 283 287 291 290 286 285 280 279 282 279 276 268 267 267 264 260 262 266 260 263 266 259 259 242 249 244
287 288 289 292 293 287 283 286 283 281 271 273 266 266 272 265 267 268 265 254 250 249 257 258 257 251 243
293 298 304 310 309 304 296 286 283 281 276 273 270 270 272 273 274 263 254 254 253 256 257 251 250 250 246
292 300 308 313 315 311 301 294 285 282 280 275 266 268 270 268 267 262 257 256 255 252 257 250 245 245 242
296 297 305 311 318 314 308 306 307 291 288 283 276 266 264 258 255 257 260 256 253 250 248 248 245 241 244
297 297 298 303 305 306 297 303 303 303 291 281 280 267 255 251 249 259 260 259 252 249 252 247 245 245 242
296 289 290 292 298 303 301 299 297 302 294 287 277 272 261 253 250 257 263 258 249 248 253 253 250 246 240
305 296 288 289 294 297 294 296 299 297 301 288 280 271 261 254 258 263 261 251 248 252 255 252 248 241 235
312 301 296 292 294 296 300 300 293 295 298 280 277 268 268 264 264 258 253 247 249 250 249 249 242 234 232
299 301 297 296 294 292 293 294 293 284 282 280 276 273 264 262 264 258 264 257 252 252 250 246 234 229 231
302 299 297 296 297 295 294 291 288 283 278 271 271 271 272 274 273 269 267 261 256 253 246 240 228 225 225
297 294 291 294 294 296 296 292 286 283 279 272 269 267 264 264 268 271 270 266 260 254 244 239 226 221 220
291 292 292 293 294 296 297 295 291 291 283 275 269 264 262 262 264 266 264 254 256 252 234 236 228 227 233
283 291 301 295 292 293 294 292 293 295 288 280 276 271 268 266 264 263 262 258 254 252 235 234 235 238 243
277 279 288 292 289 289 289 289 294 290 288 286 283 279 276 274 268 263 255 256 252 246 242 245 243 244 246
273 277 279 281 280 282 282 285 289 288 287 286 284 280 279 280 275 268 264 252 252 247 249 250 254 252 251
Wind_Speed_850mb
43 44 44 47 49 54 57 57 51 50 45 40 38 38 36 34 32 33 30 25 26 25 22 29 24 25 19
35 34 43 43 45 50 51 49 50 52 48 44 41 40 37 41 39 38 33 28 27 25 21 24 26 20 19
37 38 43 44 46 46 44 43 43 39 39 41 45 39 41 43 37 36 28 30 31 30 31 30 27 25 21
37 39 40 40 44 41 39 37 38 40 41 39 42 46 40 36 35 32 29 31 32 30 31 31 32 29 23
38 37 37 38 38 37 39 38 39 41 39 43 46 44 39 39 35 32 29 32 33 31 31 32 32 30 25
37 35 34 33 37 33 37 37 40 37 37 34 41 42 41 39 35 29 28 33 31 31 31 32 32 30 31
37 35 34 33 35 32 33 36 36 37 39 42 37 35 42 40 39 34 31 35 33 33 33 34 35 36 35
38 38 36 32 34 35 35 35 35 34 36 39 39 35 35 41 38 35 40 39 36 35 36 37 37 36 36
36 33 33 32 30 33 35 32 31 32 31 31 32 30 28 26 33 39 43 41 40 36 37 37 35 35 34
37 38 29 30 29 31 32 31 25 28 27 28 31 30 26 32 36 40 40 41 38 37 38 36 35 38 36
30 36 32 30 29 30 28 30 27 26 28 31 30 28 30 29 22 16 21 30 38 39 39 37 36 38 40
33 31 28 30 30 31 30 32 33 31 31 34 36 32 31 30 29 25 25 30 37 35 35 35 36 38 38
34 34 28 28 32 34 33 34 35 34 35 37 39 38 37 37 37 33 31 30 32 36 38 38 38 40 42
37 37 29 26 33 35 33 35 35 32 31 35 35 37 40 39 41 40 34 25 16 31 38 41 41 41 39
36 39 32 31 33 34 34 34 33 31 33 30 31 33 36 36 38 35 35 35 31 25 32 40 43 41 41
40 39 36 35 36 36 36 36 32 32 33 32 29 30 32 31 33 33 33 34 32 33 35 30 37 40 40
43 40 38 40 41 39 40 37 34 33 32 33 31 28 30 31 26 22 23 31 37 37 38 41 38 36 38
Wind_Direction_850mb
278 282 282 281 279 278 277 278 279 276 277 273 269 268 275 272 275 275 277 266 273 275 260 258 247 247 239
277 283 287 291 290 286 285 280 279 282 279 276 268 267 267 264 260 262 266 260 263 266 259 259 242 249 244
287 288 289 292 293 287 283 286 283 281 271 273 266 266 272 265 267 268 265 254 250 249 257 258 257 251 243
293 298 304 310 309 304 296 286 283 281 276 273 270 270 272 273 274 263 254 254 253 256 257 251 250 250 246
292 300 308 313 315 311 301 294 285 282 280 275 266 268 270 268 267 262 257 256 255 252 257 250 245 245 242
296 297 305 311 318 314 308 306 307 291 288 283 276 266 264 258 255 257 260 256 253 250 248 248 245 241 244
297 297 298 303 305 306 297 303 303 303 291 281 280 267 255 251 249 259 260 259 252 249 252 247 245 245 242
296 289 290 292 298 303 301 299 297 302 294 287 277 272 261 253 250 257 263 258 249 248 253 253 250 246 240
305 296 288 289 294 297 294 296 299 297 301 288 280 271 261 254 258 263 261 251 248 252 255 252 248 241 235
312 301 296 292 294 296 300 300 293 295 298 280 277 268 268 264 264 258 253 247 249 250 249 249 242 234 232
299 301 297 296 294 292 293 294 293 284 282 280 276 273 264 262 264 258 264 257 252 252 250 246 234 229 231
302 299 297 296 297 295 294 291 288 283 278 271 271 271 272 274 273 269 267 261 256 253 246 240 228 225 225
297 294 291 294 294 296 296 292 286 283 279 272 269 267 264 264 268 271 270 266 260 254 244 239 226 221 220
291 292 292 293 294 296 297 295 291 291 283 275 269 264 262 262 264 266 264 254 256 252 234 236 228 227 233
283 291 301 295 292 293 294 292 293 295 288 280 276 271 268 266 264 263 262 258 254 252 235 234 235 238 243
277 279 288 292 289 289 289 289 294 290 288 286 283 279 276 274 268 263 255 256 252 246 242 245 243 244 246
273 277 279 281 280 282 282 285 289 288 287 286 284 280 279 280 275 268 264 252 252 247 249 250 254 252 251